CDT,Max TemperatureF,Mean TemperatureF,Min TemperatureF,Max Dew PointF,MeanDew PointF,Min DewpointF,Max Humidity, Mean Humidity, Min Humidity, Max Sea Level PressureIn, Mean Sea Level PressureIn, Min Sea Level PressureIn, Max VisibilityMiles, Mean VisibilityMiles, Min VisibilityMiles, Max Wind SpeedMPH, Mean Wind SpeedMPH, Max Gust SpeedMPH,PrecipitationIn, CloudCover, Events, WindDirDegrees
2013-6-1,72,62,53,60,53,43,96,80,58,29.99,29.72,29.56,10,10,4,25,6,32,0.14,7,Rain,329
2013-6-2,66,57,48,48,43,40,92,62,39,30.11,30.05,29.99,10,10,5,15,7,22,0.00,3,Rain,349
2013-6-3,69,56,44,47,44,41,99,59,40,30.07,30.03,29.93,10,10,7,22,4,21,0.00,3,,110
2013-6-4,61,58,55,56,52,47,96,80,58,30.06,30.02,29.95,10,9,3,16,12,21,0.29,7,Rain,120
2013-6-5,57,54,53,55,53,52,99,96,91,30.05,30.01,29.99,10,6,3,9,6,,0.00,8,,137
2013-6-6,59,56,54,52,51,50,94,83,75,30.06,30.03,30.02,10,10,7,10,7,16,0.00,8,,19
2013-6-7,63,58,52,52,51,49,96,79,61,30.07,30.01,29.93,10,10,7,6,2,,0.00,7,,26
2013-6-8,69,60,53,57,53,50,94,75,54,29.93,29.90,29.87,10,10,7,14,5,17,0.00,5,Rain,121
2013-6-9,66,61,57,61,58,54,97,91,75,29.88,29.80,29.75,10,8,2,25,14,31,0.57,8,Rain,75
2013-6-10,73,66,59,64,60,58,100,88,67,29.89,29.85,29.83,10,7,0,10,4,,0.00,5,Fog,303
2013-6-11,77,66,56,68,62,56,99,91,70,29.93,29.87,29.83,10,7,2,12,2,,0.01,1,Rain,50
2013-6-12,72,65,58,63,58,54,99,78,60,29.98,29.87,29.81,10,9,1,20,9,28,3.23,6,Rain,12
2013-6-13,77,66,55,61,55,50,85,65,48,30.13,30.08,29.98,10,10,10,12,8,17,0.00,1,,23
2013-6-14,79,70,60,64,60,54,87,71,58,30.09,29.98,29.87,10,10,10,24,8,30,0.00,4,Rain,125
2013-6-15,79,71,63,68,63,51,98,78,40,29.94,29.90,29.87,10,9,1,12,5,,0.00,3,,244
2013-6-16,86,71,56,64,54,46,93,59,25,29.96,29.92,29.87,10,9,1,21,5,31,0.04,1,Rain,272
2013-6-17,80,70,59,60,57,53,87,62,41,30.03,29.95,29.90,10,10,10,16,7,22,0.00,3,,305
2013-6-18,77,65,54,61,56,50,92,71,50,30.11,30.06,30.02,10,10,7,14,8,17,0.06,2,Rain,73
2013-6-19,86,73,60,64,60,56,91,65,36,30.06,30.00,29.93,10,10,10,12,6,20,0.00,2,,131
2013-6-20,88,78,69,67,65,61,82,62,46,30.00,29.94,29.85,10,10,10,14,8,24,0.00,3,,154
2013-6-21,80,72,64,70,65,62,97,81,61,30.01,29.91,29.77,10,9,2,28,10,45,0.72,4,Rain,96
2013-6-22,80,72,64,72,67,63,94,85,73,30.01,29.92,29.83,10,10,5,16,8,30,0.64,5,Rain,94
2013-6-23,80,74,68,70,67,64,100,80,61,29.90,29.79,29.68,10,10,4,17,10,26,0.10,3,Rain,216
2013-6-24,80,70,61,72,67,61,100,86,68,29.92,29.87,29.81,10,10,10,10,3,16,0.00,1,Rain,124
2013-6-25,85,75,65,75,70,63,96,84,67,29.84,29.78,29.71,10,10,10,14,6,17,0.00,1,,118
2013-6-26,86,78,70,73,69,64,99,78,49,29.85,29.75,29.68,10,9,2,20,5,26,0.00,1,,287
2013-6-27,85,76,67,69,62,55,96,63,36,29.89,29.86,29.83,10,10,3,22,7,29,0.00,0,,288
2013-6-28,78,71,64,66,60,57,84,65,51,29.87,29.85,29.82,10,10,4,28,13,37,0.03,3,Rain,306
2013-6-29,78,70,63,62,59,53,95,69,42,30.02,29.90,29.80,10,10,7,17,11,26,0.00,4,Rain,357
2013-6-30,81,69,57,60,54,51,91,61,37,30.16,30.11,30.02,10,10,7,12,5,20,0.00,1,,10